• In Belarus
  • List of Countries
  • For 7 days
  • Water Temperature
  • Satellite Maps
  • Weather Map
  • Weather Widgets
  • user-avatar
    Login

    Hourly Weather Malanje

    Today, 16 December, Saturday

    Time Temperature Precipitation Wind Pressure Humidity
    00:00 +19°C° 0.6 mm 0 mps 664 mmHg 95%
    01:00 +19°C° 0 mm 0 mps 664 mmHg 97%
    02:00 +21°C° 1.7 mm 1 mps 664 mmHg 97%
    03:00 +21°C° 1.7 mm 1 mps 664 mmHg 98%
    04:00 +20°C° 1.7 mm 1 mps 664 mmHg 98%
    05:00 +21°C° 1 mm 1 mps 664 mmHg 98%
    06:00 +21°C° 1 mm 1 mps 665 mmHg 98%
    07:00 +21°C° 0 mm 1 mps 665 mmHg 97%
    08:00 +22°C° 1 mm 1 mps 665 mmHg 96%
    09:00 +22°C° 1 mm 1 mps 665 mmHg 95%
    10:00 +23°C° 1 mm 1 mps 666 mmHg 94%
    11:00 +24°C° 0.5 mm 1 mps 665 mmHg 88%
    12:00 +25°C° 0.5 mm 1 mps 665 mmHg 82%
    13:00 +26°C° 0 mm 1 mps 665 mmHg 77%
    14:00 +26°C° 1.6 mm 1 mps 665 mmHg 82%
    15:00 +25°C° 1.6 mm 1 mps 664 mmHg 87%
    16:00 +23°C° 1.6 mm 0 mps 664 mmHg 91%
    17:00 +22°C° 0.7 mm 0 mps 664 mmHg 93%
    18:00 +21°C° 0.7 mm 0 mps 664 mmHg 94%
    19:00 +20°C° 0.7 mm 0 mps 664 mmHg 95%
    20:00 +19°C° 0.2 mm 0 mps 664 mmHg 95%
    21:00 +19°C° 0.2 mm 0 mps 665 mmHg 96%
    22:00 +19°C° 0.2 mm 0 mps 665 mmHg 96%
    23:00 +19°C° 0.1 mm 0 mps 665 mmHg 96%

    Tomorrow, 17 December, Sunday

    Time Temperature Precipitation Wind Pressure Humidity
    00:00 +19°C° 0.1 mm 0 mps 665 mmHg 96%
    01:00 +18°C° 0.1 mm 0 mps 665 mmHg 96%
    02:00 +18°C° 0.1 mm 0 mps 664 mmHg 96%
    03:00 +18°C° 0.1 mm 0 mps 664 mmHg 96%
    04:00 +18°C° 0.1 mm 0 mps 664 mmHg 97%
    05:00 +18°C° 0.1 mm 0 mps 664 mmHg 96%
    06:00 +19°C° 0.1 mm 0 mps 665 mmHg 96%
    07:00 +19°C° 0.1 mm 0 mps 665 mmHg 95%
    08:00 +21°C° 0.4 mm 0 mps 666 mmHg 91%
    09:00 +24°C° 0.4 mm 1 mps 666 mmHg 86%
    10:00 +26°C° 0.4 mm 1 mps 666 mmHg 81%
    11:00 +26°C° 0.7 mm 1 mps 666 mmHg 79%
    12:00 +27°C° 0.7 mm 1 mps 665 mmHg 78%
    13:00 +27°C° 0.7 mm 2 mps 665 mmHg 76%
    14:00 +27°C° 1 mm 2 mps 664 mmHg 80%
    15:00 +26°C° 1 mm 2 mps 664 mmHg 85%
    16:00 +26°C° 1 mm 2 mps 663 mmHg 89%
    17:00 +24°C° 0.8 mm 1 mps 664 mmHg 91%
    18:00 +23°C° 0.8 mm 1 mps 664 mmHg 93%
    19:00 +22°C° 0.8 mm 1 mps 664 mmHg 96%
    20:00 +22°C° 0.9 mm 1 mps 665 mmHg 96%
    21:00 +21°C° 0.9 mm 1 mps 665 mmHg 96%
    22:00 +21°C° 0.9 mm 1 mps 666 mmHg 97%
    23:00 +21°C° 0.2 mm 1 mps 665 mmHg 97%

    Day after tomorrow, 18 December, Monday

    Time Temperature Precipitation Wind Pressure Humidity
    00:00 +21°C° 0.2 mm 1 mps 665 mmHg 97%
    01:00 +20°C° 0.2 mm 1 mps 665 mmHg 98%
    02:00 +20°C° 0.2 mm 1 mps 665 mmHg 98%
    03:00 +20°C° 0.2 mm 1 mps 664 mmHg 98%
    04:00 +20°C° 0.2 mm 1 mps 664 mmHg 98%
    05:00 +20°C° 0.1 mm 1 mps 665 mmHg 98%
    06:00 +20°C° 0.1 mm 1 mps 665 mmHg 97%
    07:00 +20°C° 0.1 mm 1 mps 665 mmHg 97%
    08:00 +20°C° 0.1 mm 2 mps 665 mmHg 93%
    09:00 +21°C° 0.1 mm 2 mps 666 mmHg 89%
    10:00 +23°C° 0.1 mm 2 mps 666 mmHg 85%
    11:00 +24°C° 0.3 mm 2 mps 665 mmHg 82%
    12:00 +25°C° 0.3 mm 2 mps 665 mmHg 78%
    13:00 +26°C° 0.3 mm 2 mps 664 mmHg 74%
    14:00 +26°C° 0.9 mm 2 mps 664 mmHg 78%
    15:00 +26°C° 0.9 mm 2 mps 663 mmHg 83%
    16:00 +25°C° 0.9 mm 2 mps 663 mmHg 87%
    17:00 +24°C° 1.5 mm 1 mps 663 mmHg 90%
    18:00 +23°C° 1.5 mm 1 mps 663 mmHg 92%
    19:00 +21°C° 1.5 mm 1 mps 664 mmHg 95%
    20:00 +21°C° 1.3 mm 1 mps 664 mmHg 96%
    21:00 +21°C° 1.3 mm 1 mps 665 mmHg 96%
    22:00 +21°C° 1.3 mm 1 mps 665 mmHg 97%
    23:00 +20°C° 0.3 mm 1 mps 665 mmHg 97%

    19 December, Tuesday

    Time Temperature Precipitation Wind Pressure Humidity
    00:00 +20°C° 0.3 mm 1 mps 664 mmHg 98%
    01:00 +20°C° 0.3 mm 1 mps 664 mmHg 98%
    02:00 +20°C° 0.1 mm 1 mps 664 mmHg 98%
    03:00 +20°C° 0.1 mm 1 mps 663 mmHg 98%
    04:00 +19°C° 0.1 mm 1 mps 663 mmHg 98%
    05:00 +20°C° 0.1 mm 1 mps 664 mmHg 98%
    06:00 +20°C° 0.1 mm 1 mps 664 mmHg 97%
    07:00 +20°C° 0.1 mm 1 mps 665 mmHg 97%
    08:00 +22°C° 0.1 mm 1 mps 665 mmHg 91%
    09:00 +23°C° 0.1 mm 1 mps 666 mmHg 85%
    10:00 +24°C° 0.1 mm 1 mps 666 mmHg 79%
    11:00 +25°C° 0.5 mm 1 mps 665 mmHg 79%
    12:00 +25°C° 0.5 mm 2 mps 665 mmHg 79%
    13:00 +26°C° 0.5 mm 2 mps 664 mmHg 79%
    14:00 +25°C° 0.7 mm 2 mps 664 mmHg 83%
    15:00 +24°C° 0.7 mm 2 mps 664 mmHg 88%
    16:00 +24°C° 0.7 mm 2 mps 663 mmHg 92%
    17:00 +23°C° 0.4 mm 2 mps 663 mmHg 94%
    18:00 +22°C° 0.4 mm 1 mps 664 mmHg 95%
    19:00 +21°C° 0.4 mm 1 mps 664 mmHg 97%
    20:00 +21°C° 0.2 mm 1 mps 664 mmHg 97%
    21:00 +20°C° 0.2 mm 1 mps 665 mmHg 98%
    22:00 +20°C° 0.2 mm 1 mps 665 mmHg 98%
    23:00 +20°C° 0.2 mm 1 mps 664 mmHg 98%

    20 December, Wednesday

    Time Temperature Precipitation Wind Pressure Humidity
    00:00 +20°C° 0.2 mm 1 mps 664 mmHg 98%
    01:00 +20°C° 0.2 mm 1 mps 664 mmHg 98%
    02:00 +20°C° 0.5 mm 1 mps 664 mmHg 98%
    03:00 +18°C° 0.5 mm 0 mps 663 mmHg 98%
    04:00 +18°C° 0.5 mm 0 mps 663 mmHg 98%
    05:00 +18°C° 0.2 mm 0 mps 664 mmHg 98%
    06:00 +18°C° 0.2 mm 0 mps 664 mmHg 97%
    07:00 +18°C° 0.2 mm 0 mps 665 mmHg 96%
    08:00 +20°C° 0.5 mm 0 mps 665 mmHg 93%
    09:00 +21°C° 0.5 mm 0 mps 666 mmHg 90%
    10:00 +22°C° 0.5 mm 0 mps 666 mmHg 87%
    11:00 +25°C° 0.8 mm 1 mps 665 mmHg 84%
    12:00 +25°C° 0.8 mm 2 mps 665 mmHg 81%
    13:00 +26°C° 0.8 mm 2 mps 665 mmHg 78%
    14:00 +26°C° 0.6 mm 2 mps 664 mmHg 81%
    15:00 +25°C° 0.6 mm 2 mps 664 mmHg 84%
    16:00 +25°C° 0.6 mm 2 mps 664 mmHg 87%
    17:00 +24°C° 1 mm 2 mps 664 mmHg 90%
    18:00 +21°C° 1 mm 2 mps 664 mmHg 93%
    19:00 +21°C° 1 mm 1 mps 664 mmHg 96%
    20:00 +21°C° 0.3 mm 1 mps 665 mmHg 96%
    21:00 +20°C° 0.3 mm 1 mps 665 mmHg 97%
    22:00 +20°C° 0.3 mm 1 mps 666 mmHg 97%
    23:00 +20°C° 0 mm 1 mps 665 mmHg 97%

    21 December, Thursday

    Time Temperature Precipitation Wind Pressure Humidity
    00:00 +20°C° 0 mm 1 mps 665 mmHg 97%
    01:00 +20°C° 0 mm 1 mps 665 mmHg 97%
    02:00 +19°C° 0 mm 1 mps 664 mmHg 97%
    03:00 +17°C° 0 mm 0 mps 664 mmHg 97%
    04:00 +17°C° 0 mm 0 mps 664 mmHg 97%
    05:00 +17°C° 0 mm 0 mps 665 mmHg 96%
    06:00 +18°C° 0 mm 0 mps 665 mmHg 96%
    07:00 +19°C° 0 mm 0 mps 666 mmHg 95%
    08:00 +20°C° 0 mm 0 mps 666 mmHg 89%
    09:00 +22°C° 0 mm 0 mps 666 mmHg 83%
    10:00 +23°C° 0 mm 0 mps 667 mmHg 77%
    11:00 +26°C° 0.1 mm 1 mps 666 mmHg 72%
    12:00 +27°C° 0.1 mm 1 mps 666 mmHg 67%
    13:00 +28°C° 0.1 mm 2 mps 665 mmHg 62%
    14:00 +27°C° 0.9 mm 2 mps 665 mmHg 70%
    15:00 +26°C° 0.9 mm 2 mps 664 mmHg 78%
    16:00 +26°C° 0.9 mm 2 mps 664 mmHg 85%
    17:00 +24°C° 0.7 mm 2 mps 664 mmHg 88%
    18:00 +22°C° 0.7 mm 1 mps 664 mmHg 91%
    19:00 +21°C° 0.7 mm 1 mps 665 mmHg 93%
    20:00 +20°C° 0 mm 1 mps 665 mmHg 94%
    21:00 +20°C° 0 mm 1 mps 665 mmHg 95%
    22:00 +19°C° 0 mm 1 mps 666 mmHg 96%
    23:00 +19°C° 0 mm 1 mps 665 mmHg 96%
    Show more

    XHprof extension not loaded